This demonstration page uses our WeatherBlox Daily Observations layout. Learn more.

Left ArrowRight Arrow

Hourly Observations for June 15, 2017

Temp ( °F °C ) Dew Point ( °F °C ) Humidity (%) Winds ( mph kmh ) Pressure ( in mb ) Visibility ( mi km ) Precip ( " mm )
12:53 am 00:53 Clear 47 8.3 42 5.6 83 83 SSW 9 15 29.87 1012 10 16 0.00 0.00
1:53 am 01:53 Clear 46 7.8 41 5 83 83 WSW 9 15 29.86 1011 10 16 0.00 0.00
2:53 am 02:53 Clear 46 7.8 41 5 83 83 SW 10 17 29.87 1012 10 16 0.00 0.00
3:53 am 03:53 Clear 48 8.9 39 3.9 71 71 SSW 6 9 29.87 1011 10 16 0.00 0.00
4:53 am 04:53 Clear 46 7.8 40 4.4 79 79 W 7 11 29.87 1011 10 16 0.00 0.00
5:53 am 05:53 Sunny 48 8.9 40 4.4 74 74 SW 13 20 29.88 1012 10 16 0.00 0.00
6:53 am 06:53 Sunny 51 10.6 41 5 69 69 SW 14 22 29.88 1012 10 16 0.00 0.00
7:53 am 07:53 Sunny 55 12.8 42 5.6 62 62 SW 14 22 29.88 1012 10 16 0.00 0.00
8:53 am 08:53 Sunny 61 16.1 43 6.1 52 52 SW 15 24 29.88 1012 10 16 0.00 0.00
9:53 am 09:53 Sunny 66 18.9 39 3.9 37 37 W 15 24 29.88 1012 10 16 0.00 0.00
10:53 am 10:53 Sunny 69 20.6 41 5 36 36 W 15 24 29.88 1012 10 16 0.00 0.00
11:53 am 11:53 Partly Cloudy 70 21.1 40 4.4 34 34 W 16 26 29.87 1012 10 16 0.00 0.00
12:53 pm 12:53 Cloudy 70 21.1 41 5 35 35 WNW 14 22 29.87 1012 10 16 0.00 0.00
1:53 pm 13:53 Mostly Cloudy 73 22.8 37 2.8 27 27 W 12 19 29.87 1011 10 16 0.00 0.00
2:53 pm 14:53 Mostly Cloudy 74 23.3 36 2.2 25 25 W 20 31 29.85 1011 10 16 0.00 0.00
3:53 pm 15:53 Cloudy 76 24.4 36 2.2 23 23 W 16 26 29.84 1010 10 16 0.00 0.00
4:53 pm 16:53 Mostly Sunny 72 22.2 37 2.8 28 28 W 17 28 29.84 1011 10 16 0.00 0.00
5:53 pm 17:53 Mostly Sunny 73 22.8 38 3.3 28 28 WNW 14 22 29.82 1010 10 16 0.00 0.00
6:53 pm 18:53 Mostly Cloudy 71 21.7 39 3.9 31 31 W 15 24 29.81 1009 10 16 0.00 0.00
7:53 pm 19:53 Cloudy 69 20.6 40 4.4 35 35 W 9 15 29.80 1009 10 16 0.00 0.00
8:53 pm 20:53 Cloudy 65 18.3 45 7.2 49 49 WSW 5 7 29.78 1009 10 16 0.00 0.00
9:53 pm 21:53 Cloudy 62 16.7 49 9.4 62 62 SSW 10 17 29.78 1009 10 16 0.00 0.00
10:53 pm 22:53 Cloudy 63 17.2 44 6.7 50 50 WNW 7 11 29.79 1009 10 16 0.00 0.00
11:53 pm 23:53 Mostly Cloudy 61 16.1 45 7.2 56 56 WSW 8 13 29.78 1009 10 16 0.00 0.00

Powered by AerisWeather